TimeAKDT,TemperatureF,Dew PointF,Humidity,Sea Level PressureIn,VisibilityMPH,Wind Direction,Wind SpeedMPH,Gust SpeedMPH,PrecipitationIn,Events,Conditions,WindDirDegrees,DateUTC
12:53 AM,57.9,33.1,39,29.82,10.0,NW,3.5,-,N/A,,Clear,320,2013-05-27 08:53:00
1:53 AM,52.0,34.0,50,29.83,10.0,Calm,Calm,-,N/A,,Clear,0,2013-05-27 09:53:00
2:53 AM,48.9,34.0,56,29.83,10.0,Calm,Calm,-,N/A,,Clear,0,2013-05-27 10:53:00
3:53 AM,46.0,33.1,61,29.83,10.0,Calm,Calm,-,N/A,,Clear,0,2013-05-27 11:53:00
4:53 AM,45.0,35.1,68,29.84,10.0,Calm,Calm,-,N/A,,Clear,0,2013-05-27 12:53:00
5:53 AM,46.9,37.9,71,29.85,10.0,Calm,Calm,-,N/A,,Clear,0,2013-05-27 13:53:00
6:53 AM,54.0,36.0,51,29.86,10.0,Calm,Calm,-,N/A,,Clear,0,2013-05-27 14:53:00
7:53 AM,63.0,34.0,34,29.85,10.0,Calm,Calm,-,N/A,,Clear,0,2013-05-27 15:53:00
8:53 AM,64.0,35.1,34,29.86,10.0,Calm,Calm,-,N/A,,Clear,0,2013-05-27 16:53:00
9:53 AM,64.9,36.0,34,29.86,10.0,East,6.9,-,N/A,,Clear,100,2013-05-27 17:53:00
10:53 AM,69.1,36.0,30,29.85,10.0,Calm,Calm,-,N/A,,Clear,0,2013-05-27 18:53:00
11:53 AM,73.0,36.0,26,29.84,10.0,Variable,5.8,-,N/A,,Clear,0,2013-05-27 19:53:00
12:53 PM,75.0,32.0,21,29.83,10.0,East,3.5,-,N/A,,Clear,90,2013-05-27 20:53:00
1:53 PM,75.9,30.0,19,29.81,10.0,Calm,Calm,-,N/A,,Clear,0,2013-05-27 21:53:00
2:53 PM,75.9,33.1,21,29.81,10.0,East,6.9,-,N/A,,Clear,90,2013-05-27 22:53:00
3:53 PM,75.9,32.0,20,29.79,10.0,Calm,Calm,-,N/A,,Clear,0,2013-05-27 23:53:00
4:53 PM,79.0,33.1,19,29.78,10.0,Calm,Calm,-,N/A,,Clear,0,2013-05-28 00:53:00
5:53 PM,79.0,33.1,19,29.77,10.0,East,8.1,-,N/A,,Clear,90,2013-05-28 01:53:00
6:53 PM,79.0,32.0,18,29.76,10.0,Calm,Calm,-,N/A,,Clear,0,2013-05-28 02:53:00
7:53 PM,77.0,32.0,19,29.75,10.0,South,11.5,-,N/A,,Partly Cloudy,190,2013-05-28 03:53:00
8:53 PM,75.9,33.1,21,29.75,10.0,SSW,5.8,-,N/A,,Clear,210,2013-05-28 04:53:00
9:53 PM,73.0,33.1,23,29.77,10.0,Calm,Calm,-,N/A,,Clear,0,2013-05-28 05:53:00
10:53 PM,69.1,35.1,29,29.76,10.0,Calm,Calm,-,N/A,,Clear,0,2013-05-28 06:53:00
11:53 PM,60.1,42.1,51,29.77,10.0,Calm,Calm,-,N/A,,Clear,0,2013-05-28 07:53:00